Regional Weather Roundup
Issued by NWS Newport/Morehead, NC

Current Version | Previous Version | Text Only | Print | Product List | Glossary On
Versions: 1 2 3 4 5 6 7 8 9 10 11 12 13 14 15 16 17 18 19 20 21 22 23 24 25 26 27 28 29 30 31 32 33 34 35 36 37 38 39 40 41 42 43 44 45 46 47 48 49 50
236
ASUS42 KMHX 241413
RWRMHX
WEATHER ROUNDUP FOR EASTERN NORTH CAROLINA
NATIONAL WEATHER SERVICE NEWPORT/MOREHEAD CITY NC
1000 AM EDT THU MAY 24 2018

NOTE: "FAIR" INDICATES FEW OR NO CLOUDS BELOW 12,000 FEET
WITH NO SIGNIFICANT WEATHER AND/OR OBSTRUCTIONS TO VISIBILITY

NCZ015>017-031-032-045>047-102-103-241500-
NORTH COAST

CITY           SKY/WX    TMP DP  RH WIND       PRES   REMARKS
EDENTON        FAIR      77  64  64 NE7       30.16R
ELIZABETH CITY FAIR      77  66  68 NE9       30.15S
KITTY HAWK     FAIR      72  64  75 N8        30.14S
MANTEO         FAIR      76  64  65 NE10      30.15S

$$

NCZ045>047-081-094-103-104-241500-
CENTRAL COAST

CITY           SKY/WX    TMP DP  RH WIND       PRES   REMARKS
FRISCO         FAIR      77  68  73 NE7       30.14R

$$

NCZ095-097-098-100-101-241500-
SOUTHERN COAST

CITY           SKY/WX    TMP DP  RH WIND       PRES   REMARKS
BEAUFORT       FAIR      78  69  73 NE8       30.14R
CEDAR ISLAND   NOT AVBL
JACKSONVILLE   CLOUDY    76  71  85 CALM      30.14R
PINEY ISLAND   NOT AVBL
WILMINGTON     TSTM      71  69  93 W5        30.15S FOG


$$

NCZ011>013-027>030-043-044-078>080-089-090>093-098-241500-
COASTAL PLAIN

CITY           SKY/WX    TMP DP  RH WIND       PRES   REMARKS
AHOSKIE        FAIR      75  62  63 N8        30.17R
CLINTON        CLOUDY    74  73  95 CALM      30.16R
ELIZABETHTOWN  RAIN      72  71  97 CALM      30.15R FOG
GOLDSBORO      FAIR      79  65  63 E12       30.14R
GREENVILLE     FAIR      77  64  65 E5        30.17R
HAVELOCK       MOSUNNY   79  68  69 E12       30.16R
KENANSVILLE    CLOUDY    73  72  94 SE5       30.16R
KINSTON        SUNNY     79  63  57 E9        30.16R
NEW BERN       PTSUNNY   76  66  71 E7        30.16R
RICHLANDS      CLOUDY    77  72  84 E5        30.16R
ROCKY MOUNT    FAIR      77  65  66 E5        30.17R
WASHINGTON     CLOUDY    75  68  77 CALM      30.16R
WHITEVILLE     CLOUDY    75  70  86 N3        30.14R

$$

AMZ130-135-150-152-154-156-158-170-250-252-270-ANZ085-086-088-633-658-670-241500-
MARINE OBSERVATIONS

STATION/POSITION TIME  TEMP    WIND        PRES    WAVE   SWELL
                       AIR SEA DIR/SP/G            HT/PER HT/PER
                 (UTC) (F)     (DEG/KT/KT) (MB)    (FT/S) (FT/S)
CHESAPEAKE LIGHT NOT AVBL
64 E VA BEACH    1350   68 67  360/  8/ 10 1021.1    2/ 8   2/ 8
DUCK             1342   69 63   60/  6/  7 1020.7
2 E DUCK         1400      69                N/A     1/ 8
OREGON INLET     1342   72 74  360/  8/ 12 1020.6
13E OREGON INLT  1348      68                N/A     2/ 6   2/ 6
HATTERAS CG      1342   75 75   30/  9/ 13 1020.1
DIAMOND BUOY     1400   72 75   20/ 10/ 12 1020.8
CAPE LOOKOUT     1400           60/  3/  4 1021.0
BEAUFORT LAB     1342   76 77   40/  8/  9 1020.8
30 SE NEW RVR IN 1308   73     280/  8/ 12 1020.1
30 SE NEW RVR IN 1400      75                N/A     3/ 8
27 SE WRIGHTSVLE 1308   72 75  350/ 10/ 16 1020.4
5 SE WRIGHTSVLE  1308   71 73  310/  6/ 10 1020.1
225 S CAPE HAT   1350      78  290/  8/ 10 1020.7    3/ 8   3/ 8
41 SE CHARLESTON 1350      75  220/  2/  2 1020.4    3/ 8   3/ 8

$$




USA.gov is the U.S. government's official web portal to all federal, state and local government web resources and services.